Snowfall_Accumulation
0.0 0.0 0.0 0.0 0.0 0.0 0.0 0.0 0.0 0.0 0.0 0.0 0.0 0.0 0.0 0.0 0.0 0.0 0.0 0.0 0.0 0.0 0.0 0.0 0.0 0.0 0.0 0.0 0.0 0.0 0.0 0.0 0.0 0.0 0.0 0.0 0.0 0.0 0.0 0.0 0.0 0.0 0.0 0.0
0.0 0.0 0.0 0.0 0.0 0.0 0.0 0.0 0.0 0.0 0.0 0.0 0.0 0.0 0.0 0.0 0.0 0.0 0.0 0.0 0.0 0.0 0.0 0.0 0.0 0.0 0.0 0.0 0.0 0.0 0.0 0.0 0.0 0.0 0.0 0.0 0.0 0.0 0.0 0.0 0.0 0.0 0.0 0.0
0.0 0.0 0.0 0.0 0.0 0.0 0.0 0.0 0.0 0.0 0.0 0.0 0.0 0.0 0.0 0.0 0.0 0.0 0.0 0.0 0.0 0.0 0.0 0.0 0.0 0.0 0.0 0.0 0.0 0.0 0.0 0.0 0.0 0.0 0.0 0.0 0.0 0.0 0.0 0.0 0.0 0.0 0.0 0.0
0.0 0.0 0.0 0.0 0.0 0.0 0.0 0.0 0.0 0.0 0.0 0.0 0.0 0.0 0.0 0.0 0.0 0.0 0.0 0.0 0.0 0.0 0.0 0.0 0.0 0.0 0.0 0.0 0.0 0.0 0.0 0.0 0.0 0.0 0.0 0.0 0.0 0.0 0.0 0.0 0.0 0.0 0.0 0.0
0.0 0.0 0.0 0.0 0.0 0.0 0.0 0.0 0.0 0.0 0.0 0.0 0.0 0.0 0.0 0.0 0.0 0.0 0.0 0.0 0.0 0.0 0.0 0.0 0.0 0.0 0.0 0.0 0.0 0.0 0.0 0.0 0.0 0.0 0.0 0.0 0.0 0.0 0.0 0.0 0.0 0.0 0.0 0.0
0.0 0.0 0.0 0.0 0.0 0.0 0.0 0.0 0.0 0.0 0.0 0.1 0.0 0.0 0.2 0.2 0.2 0.0 0.0 0.0 0.0 0.0 0.0 0.0 0.0 0.0 0.0 0.0 0.0 0.0 0.0 0.0 0.0 0.0 0.0 0.0 0.0 0.0 0.0 0.0 0.0 0.0 0.0 0.0
0.0 0.0 0.0 0.0 0.0 0.0 0.0 0.0 1.7 1.3 1.2 0.3 0.0 0.0 0.9 0.2 0.2 0.1 0.0 0.0 0.0 0.0 0.0 0.0 0.0 0.0 0.0 0.0 0.0 0.0 0.0 0.0 0.0 0.0 0.0 0.0 0.0 0.0 0.0 0.0 0.0 0.0 0.0 0.0
0.5 0.8 0.0 0.0 0.0 0.0 0.0 0.0 0.7 0.3 0.5 0.0 0.0 0.0 2.0 0.3 0.1 0.1 0.1 0.1 0.0 0.0 0.0 0.0 0.0 0.0 0.0 0.0 0.0 0.0 0.0 0.0 0.0 0.0 0.0 0.0 0.0 0.0 0.0 0.0 0.0 0.0 0.0 0.0
0.5 0.3 0.0 0.0 0.0 0.0 0.0 0.5 0.0 0.3 0.2 1.0 0.0 0.2 0.2 0.2 0.2 0.2 0.3 0.1 0.0 0.0 0.0 0.0 0.0 0.0 0.0 0.0 0.0 0.0 0.0 0.0 0.0 0.0 0.0 0.0 0.0 0.0 0.0 0.0 0.0 0.0 0.0 0.0
0.1 1.2 0.0 0.0 0.1 0.0 0.1 0.0 1.3 1.7 1.9 0.4 0.3 0.4 5.5 1.1 2.7 0.4 0.7 0.7 0.1 0.1 0.1 0.0 0.0 0.0 0.0 0.0 0.0 0.0 0.0 0.0 0.0 0.0 0.0 0.0 0.0 0.0 0.0 0.0 0.0 0.0 0.0 0.0
0.1 0.8 0.6 0.0 1.3 1.7 0.8 0.7 0.1 0.4 1.9 4.1 4.6 9.0 1.5 1.6 0.4 0.7 0.3 1.2 0.6 0.2 0.2 0.2 0.0 0.0 0.0 0.0 0.0 0.0 0.0 0.0 0.0 0.0 0.0 0.0 0.0 0.0 0.0 0.0 0.0 0.0 0.0 0.0
0.1 0.1 2.3 0.6 0.1 0.0 0.0 0.1 0.2 2.5 2.7 4.7 7.4 8.7 0.0 0.0 0.1 0.0 0.0 0.2 0.7 0.3 0.3 0.2 0.2 0.1 0.0 0.1 0.0 0.0 0.0 0.0 0.0 0.0 0.0 0.0 0.0 0.0 0.0 0.0 0.0 0.0 0.0 0.0
0.1 0.1 0.6 0.4 0.5 0.1 0.8 0.1 0.1 0.3 0.3 2.1 9.0 7.1 0.0 0.0 0.0 0.0 0.1 0.0 0.0 0.3 0.7 0.4 0.3 0.2 0.0 0.0 0.1 0.0 0.0 0.0 0.0 0.0 0.0 0.0 0.0 0.0 0.0 0.0 0.0 0.0 0.0 0.0
nan 0.1 1.8 7.4 14.3 2.1 3.1 0.3 0.1 0.1 1.0 2.2 1.9 1.1 0.1 0.2 0.1 0.0 0.0 0.0 0.0 0.1 0.7 0.8 0.4 0.4 0.1 0.0 0.0 0.2 0.0 0.0 0.0 0.0 0.0 0.0 0.0 0.0 0.0 0.0 0.0 0.0 0.0 0.0
0.2 2.8 1.2 4.0 2.1 0.1 0.5 0.8 0.2 0.2 0.3 0.7 1.5 0.5 0.4 0.6 0.5 0.1 0.0 0.0 0.0 0.0 0.2 0.3 0.6 0.7 0.3 0.1 0.0 0.0 0.1 0.0 0.0 0.0 0.0 0.0 0.0 0.0 0.0 0.0 0.0 0.0 0.0 0.0
0.1 3.1 3.1 5.8 0.2 0.1 0.6 0.3 0.1 0.1 0.2 0.7 0.2 0.3 0.1 0.0 0.1 0.0 0.0 0.0 0.0 0.0 0.1 0.0 0.1 0.8 0.5 0.2 0.1 0.0 0.0 0.0 0.0 0.0 0.0 0.0 0.0 0.0 0.0 0.0 0.0 0.0 0.0 0.0
0.3 2.1 2.8 5.3 0.4 0.1 2.1 12.6 6.6 2.3 3.6 6.5 7.1 8.0 0.3 0.1 0.2 0.2 0.2 0.1 0.3 0.1 0.0 0.0 0.0 0.1 0.2 0.1 0.0 0.0 0.0 0.0 0.0 0.0 0.0 0.0 0.0 0.0 0.0 0.0 0.0 0.0 0.0 0.0
0.5 0.5 1.2 3.8 2.1 10.4 9.6 2.9 3.6 12.5 6.3 5.1 3.3 3.6 1.6 0.9 0.2 0.2 0.4 0.8 0.5 0.3 0.2 0.1 0.1 0.0 0.0 0.0 0.0 0.0 0.0 0.0 0.0 0.0 0.0 0.0 0.0 0.0 0.0 0.0 0.0 0.0 0.0 0.0
0.0 0.2 5.4 12.3 3.0 3.9 0.2 6.1 11.1 9.9 9.5 5.5 7.7 5.8 3.0 0.3 0.4 0.5 0.6 0.9 1.9 2.5 0.7 1.3 0.2 0.1 0.0 0.1 0.0 0.0 0.0 0.0 0.0 0.0 0.0 0.0 0.0 0.0 0.0 0.0 0.0 0.0 0.0 0.0
0.0 0.1 1.2 3.3 3.2 11.1 9.0 2.1 0.0 0.1 1.8 0.5 4.4 6.2 6.8 1.1 5.8 7.7 3.5 3.3 1.9 1.5 1.9 2.9 0.8 0.4 0.1 0.1 0.1 0.0 0.0 0.0 0.0 0.0 0.0 0.0 0.0 0.0 0.0 0.0 0.0 0.0 0.0 0.0
0.5 1.6 6.3 2.3 2.4 1.5 2.2 0.0 0.0 1.1 1.6 0.7 0.6 1.9 3.0 8.4 8.8 6.9 4.0 4.4 2.6 3.4 3.0 1.3 1.5 2.5 1.4 0.4 0.2 0.1 0.1 0.2 0.0 0.0 0.0 0.0 0.0 0.0 0.0 0.0 0.0 0.0 0.0 0.0
3.0 4.4 5.3 1.3 2.4 8.1 0.5 0.0 3.7 4.4 0.1 0.0 0.0 0.1 1.0 1.8 2.6 4.0 4.6 5.4 4.3 3.5 1.8 1.4 2.9 1.8 1.6 1.2 0.9 1.8 0.5 0.2 0.0 0.0 0.0 0.0 0.0 0.0 0.0 0.0 0.0 0.0 0.0 0.0
14.2 4.6 5.0 3.6 11.9 1.0 0.4 2.7 0.2 0.1 0.1 0.0 0.0 0.0 0.0 0.0 0.2 0.5 1.8 1.7 0.6 1.0 0.4 0.2 2.7 2.3 1.9 1.5 0.9 1.3 1.6 0.5 0.2 0.1 0.1 0.0 0.0 0.0 0.0 0.0 0.1 0.0 0.0 0.0
0.1 0.0 1.1 1.2 0.3 0.3 0.1 0.0 0.0 0.0 0.0 0.0 0.0 0.0 0.0 0.0 0.0 0.0 0.1 0.1 0.1 0.0 0.0 0.0 0.9 1.9 1.4 1.0 1.1 0.2 0.1 0.1 0.2 1.3 1.6 0.3 0.2 0.1 0.2 0.1 0.1 0.1 0.1 0.1
0.4 0.1 0.0 0.1 0.0 0.0 0.0 0.0 0.0 0.0 0.0 0.0 0.0 0.0 0.0 0.0 0.0 0.0 0.0 0.0 0.0 0.0 0.0 0.0 1.2 0.5 0.2 0.1 0.2 0.0 0.0 0.0 0.0 0.1 0.1 0.2 0.8 0.3 0.2 0.3 1.2 0.8 0.8 0.5
0.1 0.1 1.1 2.2 0.0 0.0 0.0 0.0 0.0 0.0 0.0 0.0 0.0 0.0 0.0 0.0 0.0 0.0 0.0 0.0 0.0 0.0 0.0 0.0 0.0 0.0 0.0 0.0 0.0 0.0 0.0 0.0 0.0 0.1 0.1 0.1 0.0 0.0 0.0 0.0 0.1 nan nan nan
Water_Equivalent
0.00 0.00 0.00 0.00 0.00 0.00 0.00 0.00 0.00 0.00 0.00 0.00 0.00 0.00 0.00 0.00 0.00 0.00 0.00 0.00 0.00 0.00 0.00 0.00 0.00 0.00 0.00 0.00 0.00 0.00 0.00 0.00 0.00 0.00 0.00 0.00 0.00 0.00 0.00 0.00 0.00 0.00 0.00 0.00
0.00 0.00 0.00 0.00 0.00 0.00 0.00 0.00 0.00 0.00 0.00 0.00 0.00 0.00 0.00 0.00 0.00 0.00 0.00 0.00 0.00 0.00 0.00 0.00 0.00 0.00 0.00 0.00 0.00 0.00 0.00 0.00 0.00 0.00 0.00 0.00 0.00 0.00 0.00 0.00 0.00 0.00 0.00 0.00
0.00 0.00 0.00 0.00 0.00 0.00 0.00 0.00 0.00 0.00 0.00 0.00 0.00 0.00 0.00 0.00 0.00 0.00 0.00 0.00 0.00 0.00 0.00 0.00 0.00 0.00 0.00 0.00 0.00 0.00 0.00 0.00 0.00 0.00 0.00 0.00 0.00 0.00 0.00 0.00 0.00 0.00 0.00 0.00
0.00 0.00 0.00 0.00 0.00 0.00 0.00 0.00 0.00 0.00 0.00 0.00 0.00 0.00 0.00 0.00 0.00 0.00 0.00 0.00 0.00 0.00 0.00 0.00 0.00 0.00 0.00 0.00 0.00 0.00 0.00 0.00 0.00 0.00 0.00 0.00 0.00 0.00 0.00 0.00 0.00 0.00 0.00 0.00
0.00 0.00 0.00 0.00 0.00 0.00 0.00 0.00 0.00 0.00 0.00 0.00 0.00 0.00 0.00 0.00 0.00 0.00 0.00 0.00 0.00 0.00 0.00 0.00 0.00 0.00 0.00 0.00 0.00 0.00 0.00 0.00 0.00 0.00 0.00 0.00 0.00 0.00 0.00 0.00 0.00 0.00 0.00 0.00
0.00 0.00 0.00 0.00 0.00 0.00 0.00 0.00 0.00 0.00 0.00 0.02 0.00 0.00 0.02 0.04 0.04 0.00 0.00 0.00 0.00 0.00 0.00 0.00 0.00 0.00 0.00 0.00 0.00 0.00 0.00 0.00 0.00 0.00 0.00 0.00 0.00 0.00 0.00 0.00 0.00 0.00 0.00 0.00
0.00 0.00 0.00 0.00 0.00 0.00 0.00 0.00 0.24 0.18 0.18 0.05 0.00 0.00 0.12 0.03 0.04 0.02 0.01 0.00 0.00 0.00 0.00 0.00 0.00 0.00 0.00 0.00 0.00 0.00 0.00 0.00 0.00 0.00 0.00 0.00 0.00 0.00 0.00 0.00 0.00 0.00 0.00 0.00
0.09 0.13 0.00 0.00 0.00 0.01 0.00 0.00 0.11 0.03 0.06 0.00 0.00 0.00 0.28 0.05 0.03 0.02 0.01 0.01 0.00 0.00 0.00 0.00 0.00 0.00 0.00 0.00 0.00 0.00 0.00 0.00 0.00 0.00 0.00 0.00 0.00 0.00 0.00 0.00 0.00 0.00 0.00 0.00
0.07 0.05 0.00 0.00 0.00 0.00 0.01 0.09 0.00 0.04 0.04 0.13 0.00 0.02 0.03 0.04 0.05 0.04 0.05 0.01 0.00 0.00 0.00 0.00 0.00 0.00 0.00 0.00 0.00 0.00 0.00 0.00 0.00 0.00 0.00 0.00 0.00 0.00 0.00 0.00 0.00 0.00 0.00 0.00
0.02 0.15 0.01 0.00 0.02 0.00 0.02 0.00 0.17 0.27 0.27 0.04 0.04 0.05 0.73 0.17 0.43 0.07 0.12 0.12 0.02 0.02 0.02 0.00 0.00 0.00 0.00 0.00 0.00 0.00 0.00 0.00 0.00 0.00 0.00 0.00 0.00 0.00 0.00 0.00 0.00 0.00 0.00 0.00
0.03 0.11 0.09 0.00 0.24 0.27 0.13 0.17 0.02 0.07 0.30 0.48 0.49 1.00 0.24 0.25 0.07 0.11 0.04 0.22 0.10 0.04 0.04 0.03 0.01 0.00 0.00 0.00 0.00 0.00 0.00 0.00 0.00 0.00 0.00 0.00 0.00 0.00 0.00 0.00 0.00 0.00 0.00 0.00
0.03 0.02 0.33 0.11 0.01 0.01 0.01 0.01 0.02 0.50 0.36 0.63 1.03 1.03 0.00 0.00 0.02 0.00 0.01 0.03 0.14 0.06 0.05 0.04 0.03 0.01 0.00 0.02 0.00 0.00 0.00 0.00 0.00 0.00 0.00 0.00 0.00 0.00 0.00 0.00 0.00 0.00 0.00 0.00
0.01 0.03 0.09 0.06 0.07 0.02 0.16 0.01 0.01 0.04 0.05 0.26 1.38 0.96 0.00 0.00 0.00 0.00 0.01 0.00 0.01 0.07 0.13 0.07 0.06 0.05 0.00 0.00 0.04 0.00 0.00 0.00 0.00 0.00 0.00 0.00 0.00 0.00 0.00 0.00 0.00 0.00 0.00 0.00
nan 0.03 0.27 0.84 1.74 0.41 0.43 0.04 0.01 0.03 0.14 0.27 0.23 0.13 0.01 0.02 0.02 0.00 0.00 0.00 0.00 0.01 0.13 0.15 0.07 0.06 0.03 0.00 0.00 0.06 0.00 0.00 0.00 0.00 0.00 0.00 0.00 0.00 0.00 0.00 0.00 0.00 0.00 0.00
0.03 0.38 0.19 0.58 0.37 0.02 0.08 0.12 0.03 0.04 0.04 0.09 0.27 0.08 0.06 0.08 0.08 0.02 0.00 0.00 0.00 0.01 0.03 0.05 0.11 0.12 0.05 0.02 0.00 0.00 0.03 0.00 0.00 0.00 0.00 0.00 0.00 0.00 0.00 0.00 0.00 0.00 0.00 0.00
0.02 0.50 0.52 0.91 0.04 0.03 0.09 0.05 0.01 0.01 0.04 0.16 0.06 0.04 0.02 0.01 0.01 0.01 0.00 0.00 0.01 0.00 0.02 0.00 0.02 0.14 0.08 0.03 0.01 0.00 0.00 0.00 0.00 0.00 0.00 0.00 0.00 0.00 0.00 0.00 0.00 0.00 0.00 0.00
0.06 0.38 0.44 0.85 0.06 0.02 0.28 1.44 0.84 0.36 0.60 0.98 0.89 1.14 0.05 0.03 0.04 0.04 0.04 0.01 0.07 0.02 0.01 0.00 0.00 0.01 0.03 0.01 0.00 0.01 0.00 0.00 0.00 0.00 0.00 0.00 0.00 0.00 0.00 0.00 0.00 0.00 0.00 0.00
0.09 0.09 0.21 0.71 0.44 1.67 1.25 0.52 0.63 1.69 0.92 0.83 0.58 0.59 0.33 0.17 0.05 0.05 0.09 0.18 0.09 0.06 0.03 0.02 0.02 0.01 0.00 0.00 0.00 0.00 0.00 0.00 0.00 0.00 0.00 0.00 0.00 0.00 0.00 0.00 0.00 0.00 0.00 0.00
0.01 0.05 0.97 2.20 0.49 0.64 0.03 0.84 1.52 1.22 1.11 0.93 1.21 1.00 0.60 0.06 0.10 0.14 0.18 0.27 0.36 0.47 0.14 0.25 0.04 0.02 0.00 0.02 0.00 0.00 0.00 0.00 0.00 0.00 0.00 0.00 0.00 0.00 0.00 0.00 0.00 0.00 0.00 0.00
0.00 0.02 0.26 0.66 0.47 1.32 1.19 0.37 0.01 0.03 0.23 0.09 0.82 1.10 1.23 0.28 0.88 1.51 0.92 0.92 0.44 0.40 0.41 0.60 0.19 0.10 0.03 0.02 0.01 0.01 0.00 0.00 0.00 0.00 0.00 0.00 0.00 0.00 0.00 0.00 0.00 0.00 0.00 0.00
0.14 0.44 1.32 0.46 0.45 0.24 0.43 0.01 0.00 0.14 0.24 0.14 0.13 0.39 0.59 1.22 1.61 1.60 1.09 1.38 0.76 1.01 0.84 0.34 0.32 0.53 0.29 0.10 0.04 0.03 0.03 0.04 0.00 0.00 0.00 0.00 0.00 0.00 0.00 0.00 0.00 0.00 0.00 0.00
0.48 0.85 1.08 0.29 0.54 1.06 0.11 0.00 0.51 0.70 0.03 0.01 0.01 0.03 0.23 0.40 0.57 0.92 1.03 1.16 1.05 0.94 0.52 0.42 0.71 0.45 0.38 0.28 0.20 0.48 0.12 0.06 0.00 0.00 0.00 0.00 0.00 0.00 0.00 0.00 0.00 0.00 0.00 0.00
1.95 0.89 0.84 0.63 1.69 0.25 0.09 0.66 0.05 0.02 0.02 0.01 0.00 0.00 0.00 0.01 0.05 0.13 0.38 0.39 0.16 0.28 0.11 0.06 0.64 0.57 0.55 0.45 0.24 0.30 0.36 0.11 0.04 0.03 0.02 0.01 0.00 0.00 0.00 0.00 0.02 0.01 0.00 0.00
0.01 0.00 0.22 0.24 0.07 0.06 0.02 0.00 0.00 0.00 0.00 0.00 0.00 0.00 0.00 0.00 0.00 0.00 0.02 0.02 0.02 0.01 0.01 0.01 0.21 0.43 0.32 0.29 0.32 0.07 0.03 0.03 0.03 0.33 0.50 0.07 0.04 0.02 0.04 0.04 0.04 0.04 0.05 0.05
0.09 0.02 0.01 0.01 0.00 0.00 0.00 0.00 0.00 0.00 0.00 0.00 0.00 0.00 0.00 0.00 0.00 0.00 0.00 0.00 0.00 0.00 0.00 0.00 0.38 0.16 0.06 0.02 0.07 0.02 0.01 0.01 0.01 0.02 0.03 0.04 0.20 0.06 0.04 0.07 0.26 0.15 0.14 0.11
0.02 0.03 0.23 0.44 0.00 0.00 0.00 0.00 0.00 0.00 0.00 0.00 0.00 0.00 0.00 0.00 0.00 0.00 0.00 0.00 0.00 0.00 0.00 0.00 0.00 0.00 0.00 0.00 0.01 0.00 0.00 0.00 0.01 0.02 0.03 0.04 0.01 0.00 0.00 0.00 0.02 nan nan nan
SL_Ratio
nan nan nan nan nan nan nan nan nan nan nan nan nan nan nan nan nan nan nan nan nan nan nan nan nan nan nan nan nan nan nan nan nan nan nan nan nan nan nan nan nan nan nan nan
nan nan nan nan nan nan nan nan nan nan nan nan nan nan nan nan nan nan nan nan nan nan nan nan nan nan nan nan nan nan nan nan nan nan nan nan nan nan nan nan nan nan nan nan
nan nan nan nan nan nan nan nan nan nan nan nan nan nan nan nan nan nan nan nan nan nan nan nan nan nan nan nan nan nan nan nan nan nan nan nan nan nan nan nan nan nan nan nan
nan nan nan nan nan nan nan nan nan nan nan nan nan nan nan nan nan nan nan nan nan nan nan nan nan nan nan nan nan nan nan nan nan nan nan nan nan nan nan nan nan nan nan nan
nan nan nan nan nan nan nan nan nan nan nan nan nan nan nan nan nan nan nan nan nan nan nan nan nan nan nan nan nan nan nan nan nan nan nan nan nan nan nan nan nan nan nan nan
nan nan nan nan nan nan nan nan nan nan nan 5.4 nan nan 7.6 6.1 5.1 nan nan nan nan nan nan nan nan nan nan nan nan nan nan nan nan nan nan nan nan nan nan nan nan nan nan nan
nan nan nan nan nan nan nan 5.0 7.1 7.3 6.8 5.8 nan 5.0 7.4 5.2 4.8 5.0 5.0 nan nan nan nan nan nan nan nan nan nan nan nan nan nan nan nan nan nan nan nan nan nan nan nan nan
5.6 5.7 nan nan nan 4.4 nan 5.0 6.7 8.0 7.9 7.5 nan nan 7.2 5.1 4.8 4.7 5.0 5.3 nan nan nan nan nan nan nan nan nan nan nan nan nan nan nan nan nan nan nan nan nan nan nan nan
6.4 5.3 nan nan nan nan 5.6 5.3 nan 6.9 5.5 8.1 nan 7.0 6.3 4.4 4.8 5.1 5.2 5.5 nan nan nan nan nan nan nan nan nan nan nan nan nan nan nan nan nan nan nan nan nan nan nan nan
5.2 7.6 4.7 3.3 4.8 4.3 5.5 nan 7.4 6.1 7.0 8.0 8.4 8.1 7.5 6.6 6.3 5.9 6.1 6.2 6.0 5.4 5.4 5.0 nan 3.3 nan nan nan nan nan nan nan nan nan nan nan nan nan nan nan nan nan nan
4.5 6.9 6.8 5.0 5.5 6.1 5.6 4.4 5.4 6.5 6.5 8.5 9.5 9.0 6.3 6.4 5.9 6.2 6.5 5.6 6.2 5.8 5.5 5.3 5.0 nan 2.5 nan nan nan nan nan nan nan nan nan nan nan nan nan nan nan nan nan
4.4 5.4 6.9 5.8 3.6 4.2 4.7 7.5 7.2 5.0 7.5 7.5 7.2 8.4 nan 5.0 5.3 5.0 5.0 5.4 5.1 5.4 5.6 5.6 5.3 5.0 nan 2.8 nan nan nan nan nan nan nan nan nan nan nan nan nan nan nan nan
4.8 4.3 6.7 6.5 7.2 4.4 5.2 4.7 5.0 6.5 6.8 8.1 6.6 7.4 nan nan 5.0 nan 6.3 5.0 5.0 4.7 5.7 5.7 5.6 5.5 5.0 nan 3.0 0.0 nan 0.0 nan nan nan nan nan nan nan nan nan nan nan nan
nan 5.5 6.8 8.9 8.2 5.3 7.2 6.1 5.3 5.5 7.3 8.3 8.3 8.7 7.6 7.1 6.6 nan nan 5.0 5.0 5.0 5.5 5.6 5.9 5.8 5.5 10.0 nan 3.0 2.5 nan 5.0 nan nan nan nan nan nan nan nan nan nan nan
4.7 7.4 6.2 7.0 5.7 5.1 6.2 6.5 5.8 6.8 6.5 8.0 5.6 6.6 7.6 6.6 6.2 5.0 nan nan nan 5.5 5.8 5.9 6.0 6.0 5.8 5.7 5.0 5.0 3.3 2.5 nan nan nan nan nan nan nan nan nan nan nan nan
4.4 6.3 6.0 6.4 5.0 5.9 7.6 6.5 5.3 5.7 4.7 4.6 3.7 5.7 5.9 4.6 4.3 4.0 3.8 nan 4.6 5.0 5.9 6.0 5.6 6.1 6.0 5.8 5.7 5.0 nan 2.5 nan nan nan nan nan nan nan nan nan nan nan nan
5.2 5.6 6.3 6.3 5.8 5.7 7.6 8.7 7.9 6.2 6.0 6.7 8.0 7.0 4.9 4.8 5.2 4.9 5.0 4.5 4.1 4.4 3.8 3.0 nan 5.7 5.9 6.0 5.0 5.4 nan nan nan nan nan nan nan nan nan nan nan nan nan nan
5.3 5.4 5.5 5.4 4.7 6.2 7.6 5.5 5.7 7.4 6.9 6.2 5.7 6.1 5.0 5.3 4.6 4.7 4.5 4.5 5.3 5.2 4.7 3.9 4.2 4.6 nan nan nan nan nan nan nan nan nan nan nan nan nan nan nan nan nan nan
3.6 4.7 5.6 5.6 6.1 6.1 5.6 7.3 7.3 8.1 8.6 5.9 6.3 5.7 5.0 4.7 4.7 3.8 3.2 3.6 5.3 5.4 5.0 4.9 4.3 4.6 3.8 4.7 5.0 nan nan nan nan nan nan nan nan nan nan nan nan nan nan nan
5.0 4.2 4.5 4.9 6.9 8.4 7.6 5.6 3.5 4.0 7.9 5.0 5.3 5.7 5.5 4.0 6.6 5.1 3.8 3.6 4.2 3.8 4.5 4.8 4.5 3.8 4.0 4.6 4.7 3.9 5.0 nan nan nan nan nan nan nan nan nan nan nan nan nan
3.9 3.7 4.8 5.0 5.4 6.2 5.1 3.5 nan 8.3 6.9 4.7 4.6 4.9 5.1 6.9 5.5 4.3 3.7 3.1 3.4 3.3 3.6 3.9 4.8 4.7 4.8 3.8 4.1 4.6 4.6 4.7 nan nan nan nan nan nan nan nan nan nan nan nan
6.2 5.2 5.0 4.4 4.5 7.7 4.2 0.0 7.4 6.3 3.6 3.7 3.3 4.1 4.6 4.5 4.5 4.4 4.5 4.6 4.1 3.7 3.5 3.3 4.2 4.0 4.3 4.4 4.6 3.8 4.0 4.4 5.0 5.0 nan nan nan nan nan nan nan nan nan nan
7.3 5.2 5.9 5.7 7.0 4.2 3.8 4.1 3.6 3.1 3.5 3.8 3.3 nan nan 3.5 4.1 4.1 4.6 4.5 3.9 3.8 3.3 3.4 4.2 4.1 3.5 3.3 3.8 4.3 4.5 4.2 4.1 3.9 4.1 3.8 nan 4.2 2.5 3.3 2.5 2.5 nan nan
4.0 nan 4.9 5.0 4.5 4.3 3.5 nan 5.0 nan nan nan nan nan nan nan nan 5.0 3.4 3.8 3.3 3.3 3.7 3.5 4.3 4.5 4.4 3.5 3.3 3.4 3.7 4.3 4.5 3.8 3.3 4.0 3.7 3.9 3.8 3.7 3.2 2.8 2.7 2.7
4.5 3.6 4.4 4.7 5.0 5.0 nan nan nan nan nan nan nan nan nan nan nan nan nan nan nan 5.0 nan 1.7 3.0 3.3 3.7 3.3 3.5 3.0 3.1 3.1 3.1 4.0 4.6 4.8 4.1 5.0 4.9 4.6 4.6 5.4 5.4 5.1
3.8 4.3 4.7 5.1 5.0 4.0 4.2 nan nan nan nan nan nan nan nan nan nan nan nan nan nan nan nan nan nan nan nan nan 2.5 2.5 nan nan 3.8 3.5 3.6 3.9 4.0 nan 5.0 4.3 3.3 nan nan nan